TimeEST,TemperatureF,Dew PointF,Humidity,Sea Level PressureIn,VisibilityMPH,Wind Direction,Wind SpeedMPH,Gust SpeedMPH,PrecipitationIn,Events,Conditions,WindDirDegrees,DateUTC
12:15 AM,26.6,12.2,55,30.37,10.0,NNW,8.1,-,N/A,,Clear,340,2013-02-10 05:15:00
12:35 AM,26.6,12.2,55,30.37,10.0,NW,8.1,-,N/A,,Clear,320,2013-02-10 05:35:00
12:55 AM,26.6,10.4,51,30.38,10.0,NNW,4.6,-,N/A,,Clear,340,2013-02-10 05:55:00
1:15 AM,26.6,10.4,51,30.38,10.0,North,4.6,-,N/A,,Clear,350,2013-02-10 06:15:00
1:35 AM,24.8,10.4,54,30.39,10.0,North,4.6,-,N/A,,Clear,360,2013-02-10 06:35:00
1:55 AM,23.0,12.2,63,30.39,10.0,North,8.1,-,N/A,,Clear,350,2013-02-10 06:55:00
2:15 AM,23.0,10.4,59,30.40,10.0,NNW,6.9,-,N/A,,Clear,330,2013-02-10 07:15:00
2:35 AM,23.0,10.4,59,30.40,10.0,North,4.6,-,N/A,,Clear,350,2013-02-10 07:35:00
2:55 AM,23.0,10.4,59,30.40,10.0,North,6.9,-,N/A,,Clear,350,2013-02-10 07:55:00
3:35 AM,23.0,12.2,63,30.38,10.0,North,5.8,-,N/A,,Clear,350,2013-02-10 08:35:00
3:55 AM,23.0,12.2,63,30.38,10.0,North,8.1,-,N/A,,Clear,360,2013-02-10 08:55:00
4:15 AM,21.2,12.2,68,30.39,10.0,Calm,Calm,-,N/A,,Clear,0,2013-02-10 09:15:00
4:35 AM,21.2,12.2,68,30.38,10.0,Calm,Calm,-,N/A,,Clear,0,2013-02-10 09:35:00
4:55 AM,21.2,12.2,68,30.40,10.0,Calm,Calm,-,N/A,,Clear,0,2013-02-10 09:55:00
5:15 AM,21.2,12.2,68,30.39,10.0,Calm,Calm,-,N/A,,Clear,0,2013-02-10 10:15:00
5:35 AM,19.4,12.2,74,30.40,10.0,Calm,Calm,-,N/A,,Clear,0,2013-02-10 10:35:00
5:55 AM,19.4,10.4,68,30.40,10.0,Calm,Calm,-,N/A,,Clear,0,2013-02-10 10:55:00
6:15 AM,21.2,10.4,63,30.41,10.0,Calm,Calm,-,N/A,,Clear,0,2013-02-10 11:15:00
6:35 AM,19.4,10.4,68,30.41,10.0,Calm,Calm,-,N/A,,Clear,0,2013-02-10 11:35:00
6:55 AM,17.6,10.4,73,30.42,10.0,NW,5.8,-,N/A,,Clear,320,2013-02-10 11:55:00
7:15 AM,17.6,10.4,73,30.43,10.0,North,3.5,-,N/A,,Clear,350,2013-02-10 12:15:00
7:35 AM,21.2,10.4,63,30.44,10.0,NNW,4.6,-,N/A,,Clear,330,2013-02-10 12:35:00
7:55 AM,23.0,10.4,59,30.44,10.0,NNW,4.6,-,N/A,,Clear,330,2013-02-10 12:55:00
8:15 AM,23.0,10.4,59,30.45,10.0,NNW,4.6,-,N/A,,Clear,330,2013-02-10 13:15:00
8:35 AM,24.8,12.2,59,30.46,10.0,West,3.5,-,N/A,,Clear,280,2013-02-10 13:35:00
8:55 AM,26.6,10.4,51,30.46,10.0,NW,4.6,-,N/A,,Clear,320,2013-02-10 13:55:00
9:15 AM,28.4,10.4,47,30.46,10.0,NNW,3.5,-,N/A,,Clear,340,2013-02-10 14:15:00
9:35 AM,30.2,10.4,44,30.47,10.0,WNW,3.5,-,N/A,,Clear,290,2013-02-10 14:35:00
9:55 AM,30.2,10.4,44,30.47,10.0,Calm,Calm,-,N/A,,Clear,0,2013-02-10 14:55:00
10:15 AM,32.0,10.4,41,30.47,10.0,Calm,Calm,-,N/A,,Clear,0,2013-02-10 15:15:00
10:35 AM,32.0,10.4,41,30.47,10.0,Calm,Calm,-,N/A,,Clear,0,2013-02-10 15:35:00
10:55 AM,32.0,8.6,38,30.46,10.0,Calm,Calm,-,N/A,,Clear,0,2013-02-10 15:55:00
11:15 AM,33.8,8.6,35,30.45,10.0,Calm,Calm,-,N/A,,Clear,0,2013-02-10 16:15:00
11:35 AM,33.8,8.6,35,30.44,10.0,East,4.6,-,N/A,,Clear,90,2013-02-10 16:35:00
11:55 AM,35.6,10.4,35,30.42,10.0,SE,4.6,-,N/A,,Clear,130,2013-02-10 16:55:00
12:15 PM,35.6,10.4,35,30.41,10.0,East,3.5,-,N/A,,Clear,100,2013-02-10 17:15:00
12:35 PM,37.4,12.2,36,30.40,10.0,ESE,4.6,-,N/A,,Clear,110,2013-02-10 17:35:00
12:55 PM,37.4,10.4,33,30.40,10.0,SSW,6.9,-,N/A,,Clear,210,2013-02-10 17:55:00
1:15 PM,37.4,8.6,30,30.40,10.0,South,5.8,-,N/A,,Clear,180,2013-02-10 18:15:00
1:35 PM,37.4,8.6,30,30.39,10.0,South,6.9,-,N/A,,Clear,170,2013-02-10 18:35:00
1:55 PM,39.2,10.4,31,30.40,10.0,SSW,5.8,-,N/A,,Clear,200,2013-02-10 18:55:00
2:15 PM,39.2,10.4,31,30.38,10.0,SSE,5.8,-,N/A,,Clear,150,2013-02-10 19:15:00
2:35 PM,39.2,12.2,33,30.36,10.0,South,5.8,-,N/A,,Clear,180,2013-02-10 19:35:00
2:55 PM,39.2,12.2,33,30.37,10.0,South,4.6,-,N/A,,Clear,180,2013-02-10 19:55:00
3:15 PM,39.2,12.2,33,30.37,10.0,SSW,5.8,-,N/A,,Clear,200,2013-02-10 20:15:00
3:35 PM,39.2,10.4,31,30.35,10.0,SSE,5.8,-,N/A,,Clear,150,2013-02-10 20:35:00
3:55 PM,39.2,10.4,31,30.34,10.0,SSE,6.9,-,N/A,,Clear,150,2013-02-10 20:55:00
4:15 PM,39.2,10.4,31,30.34,10.0,SSE,5.8,-,N/A,,Clear,150,2013-02-10 21:15:00
4:35 PM,39.2,10.4,31,30.35,10.0,SSE,4.6,-,N/A,,Clear,150,2013-02-10 21:35:00
4:55 PM,37.4,8.6,30,30.35,10.0,South,5.8,-,N/A,,Clear,180,2013-02-10 21:55:00
5:15 PM,37.4,10.4,33,30.35,10.0,South,4.6,-,N/A,,Clear,180,2013-02-10 22:15:00
5:35 PM,35.6,12.2,38,30.35,10.0,South,4.6,-,N/A,,Clear,180,2013-02-10 22:35:00
5:55 PM,35.6,14.0,41,30.36,10.0,South,3.5,-,N/A,,Clear,170,2013-02-10 22:55:00
6:15 PM,35.6,14.0,41,30.35,10.0,SSE,3.5,-,N/A,,Clear,150,2013-02-10 23:15:00
6:35 PM,35.6,15.8,44,30.34,10.0,SSE,5.8,-,N/A,,Clear,150,2013-02-10 23:35:00
6:55 PM,35.6,19.4,52,30.34,10.0,SSE,5.8,-,N/A,,Clear,150,2013-02-10 23:55:00
7:15 PM,33.8,19.4,56,30.33,10.0,SSE,3.5,-,N/A,,Clear,160,2013-02-11 00:15:00
7:35 PM,33.8,19.4,56,30.34,10.0,SE,4.6,-,N/A,,Clear,140,2013-02-11 00:35:00
7:55 PM,33.8,21.2,60,30.34,10.0,SE,3.5,-,N/A,,Clear,140,2013-02-11 00:55:00
8:15 PM,33.8,21.2,60,30.34,10.0,SSE,5.8,-,N/A,,Clear,150,2013-02-11 01:15:00
8:35 PM,33.8,21.2,60,30.33,10.0,SSE,5.8,-,N/A,,Clear,150,2013-02-11 01:35:00
8:55 PM,33.8,23.0,65,30.33,10.0,SSE,5.8,-,N/A,,Clear,150,2013-02-11 01:55:00
9:15 PM,32.0,26.6,80,30.34,10.0,SSE,6.9,-,N/A,,Clear,160,2013-02-11 02:15:00
9:35 PM,32.0,26.6,80,30.33,10.0,SSE,5.8,-,N/A,,Clear,150,2013-02-11 02:35:00
9:55 PM,32.0,28.4,87,30.31,10.0,SSE,8.1,-,N/A,,Clear,150,2013-02-11 02:55:00
10:15 PM,32.0,28.4,87,30.30,10.0,SE,6.9,-,N/A,,Clear,130,2013-02-11 03:15:00
10:35 PM,32.0,30.2,93,30.29,10.0,SSE,5.8,-,N/A,,Clear,150,2013-02-11 03:35:00
10:55 PM,32.0,30.2,93,30.29,10.0,SSE,4.6,-,N/A,,Clear,150,2013-02-11 03:55:00
11:15 PM,32.0,30.2,93,30.30,10.0,SSE,4.6,-,N/A,,Clear,150,2013-02-11 04:15:00
11:35 PM,32.0,30.2,93,30.30,10.0,South,4.6,-,N/A,,Clear,170,2013-02-11 04:35:00
11:55 PM,32.0,28.4,87,30.29,10.0,SE,4.6,-,N/A,,Clear,140,2013-02-11 04:55:00